Flag for Brazil Weather past 2 weeks in Porto Alegre, Rio Grande do Sul, Brazil

Now
73 °F

Passing clouds.


Feels Like: 76 °F
Forecast: N/A
Wind: 16 mph from Southeast

Location: Porto Alegre Aero-Porto

Current Time: Feb 28, 2015 at 8:06:53 PM

Latest Report: Feb 28, 2015 at 7:00 PM


Visibility: N/A

Pressure: 30.04 "Hg

Humidity: 65%

Dew point: 61 °F

Location of Porto AlegreLocation

Historic Weather in Porto Alegre — Graph

°F

Porto Alegre temperature yesterday

Maximum temperature yesterday: 84 °F (at 4:00 PM)
Minimum temperature yesterday: 70 °F (at 2:00 AM)
Average temperature yesterday: 75 °F

Past Weeks' High & Low Weather Summary

 TemperatureHumidityPressure
High91 °F (Feb 19, 3:00 PM)100% (Feb 17, 4:00 AM)30.12 "Hg (Feb 17, 4:00 AM)
Low32 °F (Feb 24, 8:00 AM)49% (Feb 19, 3:00 PM)29.59 "Hg (Feb 19, 4:00 PM)
Average76 °F80%29.94 "Hg
* Reported Feb 13 8:00 PM — Feb 28 7:00 PM, Porto Alegre, Weather by CustomWeather, © 2015

Note: Actual official high and low records may vary slightly from our data, if they occured in-between our weather recording intervals... More about our weather records

Advertising

Porto Alegre weather history for previous 24 hours

 ConditionsComfort  
Time TempWeatherWind HumidityBarometerVisibility
7:00 PM
Sat, Feb 28
73 °FPassing clouds.16 mph65%30.04 "HgN/A
6:00 PM77 °FPassing clouds.20 mph61%30.04 "HgN/A
5:00 PM79 °FScattered clouds.18 mph54%30.04 "HgN/A
4:00 PM81 °FScattered clouds.16 mph54%30.01 "HgN/A
3:00 PM81 °FPartly sunny.15 mph54%30.01 "HgN/A
2:00 PM81 °FPartly sunny.13 mph54%30.04 "HgN/A
1:00 PM81 °FPartly sunny.14 mph58%30.04 "HgN/A
12:00 PM79 °FPartly sunny.10 mph61%30.04 "HgN/A
11:00 AM79 °FPartly sunny.12 mph61%30.04 "HgN/A
10:00 AM79 °FPartly sunny.12 mph61%30.04 "HgN/A
9:00 AM75 °FScattered clouds.13 mph74%30.04 "HgN/A
8:00 AM73 °FScattered clouds.5 mph83%30.04 "HgN/A
7:00 AM68 °FPartly sunny.No wind94%30.01 "HgN/A
6:00 AM66 °FPartly sunny.2 mph100%29.98 "HgN/A
5:00 AM66 °FPassing clouds.2 mph94%29.98 "HgN/A
4:00 AM68 °FPassing clouds.1 mph88%29.98 "HgN/A
3:00 AM70 °FPassing clouds.3 mph83%29.98 "HgN/A
2:00 AM70 °FClear.5 mph83%29.98 "Hg10 mi
1:00 AM73 °FPassing clouds.6 mph74%29.98 "HgN/A
12:00 AM73 °FClear.9 mph78%29.98 "Hg10 mi
11:00 PM
Fri, Feb 27
73 °FPassing clouds.8 mph83%29.98 "HgN/A
10:00 PM75 °FClear.6 mph78%29.95 "Hg10 mi
9:00 PM77 °FPassing clouds.3 mph83%29.92 "HgN/A
8:00 PM77 °FPassing clouds.7 mph83%29.89 "HgN/A
Weather by CustomWeather, © 2015

See weather overviewHow to use our weather pages